Location: Alta
(39.2070°N, 120.8111°W)
Time: 06:54:36
(UTC+00:00)

CZ-4B DEB - Pass Details

Date: 11 December 2023
Orbit: 838 x 858 km, 99.0° (Epoch: 02 March)

Event Time Altitude Azimuth Distance (km) Brightness Sun altitude
Rises 14:36:35 0° 34° (NE) 3,424 7.5 -7.0°
Reaches altitude 10° 14:40:06 10° 57° (ENE) 2,478 7.1 -6.4°
Maximum altitude 14:43:09 15° 91° (E) 2,134 7.5 -5.9°
Drops below altitude 10° 14:46:11 10° 125° (SE) 2,461 8.4 -5.4°
Sets 14:49:38 0° 148° (SSE) 3,386 8.5 -4.8°
